Regional Weather Roundup
Issued by NWS

Home | Current Version | Previous Version | Text Only | Print | Product List | Glossary Off
Versions: 1 2 3 4 5 6 7 8 9 10 11 12 13 14 15 16 17 18 19 20 21 22 23 24 25 26 27 28 29 30 31 32 33 34 35 36 37 38 39 40 41 42 43 44 45 46 47 48 49 50

148
ASUS45 KCYS 251410
RWRWY

WYOMING REGIONAL WEATHER ROUNDUP
NATIONAL WEATHER SERVICE CHEYENNE WY
800 AM MDT SUN SEP 25 2016

NOTE:  "FAIR" INDICATES FEW OR NO CLOUDS BELOW 12,000 FEET
WITH NO SIGNIFICANT WEATHER AND/OR OBSTRUCTIONS TO VISIBILITY.

WYZ001-251500-
YELLOWSTONE NATIONAL PARK

CITY           SKY/WX    TMP DP  RH WIND       PRES   REMARKS
LK YELLOWSTONE   N/A     26  25  96 NW3       30.53S
W YELLOWSTONE  NOT AVBL

$$
WYZ002>013-054>058-071-098>099-251500-
NORTHERN WYOMING

CITY           SKY/WX    TMP DP  RH WIND       PRES   REMARKS
JACKSON        PTCLDY    30  28  93 CALM      30.53R
CODY           FAIR      39  36  87 S3        30.46R
GREYBULL       FOG       42  39  89 CALM      30.44R VSB<1/4
WORLAND        FAIR      41  39  93 CALM      30.44R
SHERIDAN       CLOUDY    49  41  74 NW6       30.41R
BUFFALO        CLOUDY    47  37  68 N6        30.43R
GILLETTE       FAIR      46  42  86 NW10      30.39R
HULETT         FAIR      45  37  76 W8        30.38R
NEWCASTLE      FAIR      43  41  93 NW13      30.37R

$$
WYZ014>020-022>026-101>103-251500-
CENTRAL WYOMING

CITY           SKY/WX    TMP DP  RH WIND       PRES   REMARKS
BIG PINEY      FAIR      31  29  92 E3        30.51R
PINEDALE       FAIR      30  30 100 NW3       30.52R
DUBOIS         FAIR      36  30  80 NW10      30.47S WCI  28
LANDER         FAIR      38  34  85 W5        30.45R WCI  34
RIVERTON       FAIR      39  39 100 NW6       30.45R WCI  35
CASPER         FAIR      41  37  86 W9        30.44R
DOUGLAS        CLOUDY    45  39  79 NW6       30.45R

$$
WYZ021-027>030-104>119-251500-
SOUTHERN WYOMING

CITY           SKY/WX    TMP DP  RH WIND       PRES   REMARKS
EVANSTON       FAIR      38  28  67 CALM      30.51R
FORT BRIDGER   FAIR      39  33  80 W7        30.54R WCI  34
ROCK SPRINGS   FAIR      36  34  92 SW8       30.49R WCI  30
DIXON          FAIR      34  33  95 CALM      30.54R
RAWLINS        FAIR      35  32  88 CALM      30.50R
SARATOGA       FAIR      34  34 100 SW3       30.51R
LARAMIE        FAIR      32  29  88 S5        30.48R WCI  27
CHEYENNE       FAIR      41  31  67 NW6       30.45R
TORRINGTON     FAIR      46  39  76 W3        30.41R
PINE BLUFFS    FAIR      45  34  65 NW16      30.44R

$$




USA.gov is the U.S. government's official web portal to all federal, state and local government web resources and services.